Location: Kra?nica
(53.4833°N, 14.6167°E)
Time: 07:07:31
(UTC+00:00)

Cosmos 1980 Rocket - Pass Details

Date: 23 May 2024
Orbit: 827 x 851 km, 71.0° (Epoch: 15 June)

Event Time Altitude Azimuth Distance (km) Brightness Sun altitude
Rises 01:04:37 0° 318° (NW) 3,429 5.6 -11.0°
Reaches altitude 10° 01:08:10 10° 296° (WNW) 2,487 4.6 -10.7°
Maximum altitude 01:11:12 15° 263° (W) 2,156 4.0 -10.5°
Enters shadow 01:13:51 11° 234° (SW) 2,406 4.0 -10.3°
